Flag for Germany Weather past 2 weeks in Nuremberg, Bavaria, Germany

Now
55 °F

Rain. Broken clouds.


Feels Like: 55 °F
Forecast: 48 / 64 °F
Wind: 3 mph from East

Location: Nuernberg

Current Time: Aug 31, 2014 at 9:10:49 AM

Latest Report: Aug 31, 2014 at 8:20 AM


Visibility: N/A

Pressure: 29.98 "Hg

Humidity: 100%

Dew point: 55 °F

Location of NurembergLocation

Historic Weather in Nuremberg — Graph

°F

Nuremberg temperature yesterday

Maximum temperature yesterday: 72 °F (at 2:20 PM)
Minimum temperature yesterday: 54 °F (at 4:50 AM)
Average temperature yesterday: 62 °F

Past Weeks' High & Low Weather Summary

 TemperatureHumidityPressure
High73 °F (Aug 28, 4:20 PM)100% (Aug 17, 5:50 AM)30.12 "Hg (Aug 17, 5:50 AM)
Low41 °F (Aug 25, 6:20 AM)35% (Aug 22, 2:50 PM)29.68 "Hg (Aug 26, 6:50 AM)
Average58 °F76%29.98 "Hg
* Reported Aug 16 7:20 AM — Aug 31 7:20 AM, Nuremberg, Weather by CustomWeather, © 2014

Note: Actual official high and low records may vary slightly from our data, if they occured in-between our weather recording intervals... More about our weather records

Advertising

Nuremberg weather history for previous 24 hours

 ConditionsComfort  
Time TempWeatherWind HumidityBarometerVisibility
7:20 AM
Aug 31
57 °FRain showers. Passing clouds.6 mph94%30.01 "Hg2 mi
6:50 AM57 °FRain showers. Passing clouds.3 mph100%29.98 "Hg3 mi
6:20 AM57 °FLight rain. Mostly cloudy.3 mph100%29.98 "HgN/A
5:50 AM57 °FLight rain. Partly cloudy.5 mph100%29.98 "Hg4 mi
5:20 AM59 °FLight rain. Partly cloudy.2 mph94%29.98 "HgN/A
4:50 AM57 °FLight rain. Partly cloudy.2 mph94%29.98 "HgN/A
4:20 AM57 °FLight rain. Passing clouds.3 mph94%30.01 "HgN/A
3:50 AM57 °FLight rain. Passing clouds.2 mph94%30.01 "HgN/A
3:20 AM57 °FPartly cloudy.2 mph94%30.01 "HgN/A
2:50 AM57 °FLight rain. Partly cloudy.2 mph94%30.01 "HgN/A
2:20 AM57 °FLight rain. Clear.3 mph94%30.01 "HgN/A
1:50 AM57 °FPassing clouds.5 mph94%30.04 "HgN/A
1:20 AM57 °FPartly cloudy.5 mph94%30.04 "HgN/A
12:50 AM57 °FPartly cloudy.2 mph94%30.04 "HgN/A
12:20 AM59 °FLight rain. Partly cloudy.3 mph88%30.04 "HgN/A
11:50 PM
Aug 30
59 °FClear.5 mph88%30.04 "Hg10 mi
11:20 PM59 °FClear.5 mph88%30.04 "Hg10 mi
10:50 PM59 °FClear.5 mph88%30.04 "Hg10 mi
10:20 PM61 °FClear.2 mph83%30.04 "Hg10 mi
9:50 PM61 °FClear.2 mph77%30.04 "Hg10 mi
9:20 PM61 °FClear.1 mph77%30.04 "Hg10 mi
8:50 PM63 °FSunny.1 mph73%30.04 "Hg10 mi
8:20 PM63 °FSunny.1 mph77%30.04 "Hg10 mi
7:20 PM68 °FSunny.1 mph60%30.04 "Hg10 mi
6:50 PM68 °FPassing clouds.3 mph56%30.04 "HgN/A
6:20 PM70 °FPassing clouds.3 mph53%30.04 "HgN/A
5:50 PM70 °FPassing clouds.3 mph53%30.04 "HgN/A
5:20 PM70 °FPassing clouds.6 mph53%30.04 "HgN/A
4:50 PM70 °FPassing clouds.10 mph57%30.07 "HgN/A
4:20 PM70 °FPassing clouds.8 mph53%30.07 "HgN/A
3:50 PM72 °FPassing clouds.8 mph47%30.07 "HgN/A
3:20 PM72 °FPassing clouds.8 mph50%30.07 "HgN/A
2:20 PM72 °FBroken clouds.10 mph47%30.07 "HgN/A
1:50 PM70 °FBroken clouds.12 mph53%30.09 "HgN/A
1:20 PM70 °FMild.10 mph60%30.09 "HgN/A
12:50 PM68 °FBroken clouds.10 mph64%30.09 "HgN/A
12:20 PM68 °FBroken clouds.7 mph64%30.09 "HgN/A
11:50 AM68 °FBroken clouds.3 mph64%30.09 "HgN/A
11:20 AM66 °FBroken clouds.5 mph73%30.09 "HgN/A
10:50 AM66 °FBroken clouds.8 mph68%30.09 "HgN/A
10:20 AM64 °FBroken clouds.6 mph73%30.09 "HgN/A
9:50 AM64 °FScattered clouds.5 mph78%30.09 "HgN/A
9:20 AM63 °FScattered clouds.3 mph83%30.09 "HgN/A
Weather by CustomWeather, © 2014

See weather overviewHow to use our weather pages